Weather History for PHKO - August, 2014

Change the Weather History Date:

Wednesday, August 13, 2014

  Actual Average Record
Temperature  
Mean Temperature 81 °F -  
Max Temperature 87 °F 84 °F 91 °F (1982)
Min Temperature 75 °F 73 °F 71 °F (1990)
Cooling Degree Days 16    
Growing Degree Days 31 (Base 50)    
Moisture  
Dew Point 69 °F    
Average Humidity 65    
Maximum Humidity 82    
Minimum Humidity 43    
Precipitation  
Precipitation 0.00 in - - ()
Sea Level Pressure  
Sea Level Pressure 29.95 in    
Wind  
Wind Speed 5 mph (SSW)    
Max Wind Speed 12 mph    
Max Gust Speed -    
Visibility 10 miles    
Events      
Averages and records for this station are not official NWS values.
T = Trace of Precipitation, MM = Missing Value Source: NWS Daily Summary

Daily Weather History Graph

Daily Weather History Graph

Search for Another Location

Airport or City:

Trip Planner

Search our weather history database for the weather conditions in past years. The results will help you decide how hot, cold, wet, or windy it might be!

Date:

Astronomy

Aug. 13, 2014 Rise Set
Actual Time 6:03 AM HST 6:53 PM HST
Civil Twilight 5:41 AM HST 7:16 PM HST
Nautical Twilight 5:14 AM HST 7:43 PM HST
Astronomical Twilight 4:46 AM HST 8:10 PM HST
Moon 9:25 PM HST (8/13) 9:09 AM HST (8/13)
Length of Visible Light 13h 35m
Length of Day
12h 49m
Waning Gibbous, 86% of the Moon is Illuminated
Aug 13
Waning Gibbous
Aug 17
Last Quarter
Aug 25
New
Sep 2
First Quarter
Sep 8
Full

Hourly Weather History & Observations

Time (HST) Temp. Heat Index Dew Point Humidity Pressure Visibility Wind Dir Wind Speed Gust Speed Precip Events Conditions
12:53 AM 79.0 °F - 73.0 °F 82% 29.98 in 10.0 mi Calm Calm - N/A   Clear
1:53 AM 78.1 °F - 71.1 °F 79% 29.96 in 10.0 mi Calm Calm - N/A   Scattered Clouds
2:53 AM 79.0 °F - 72.0 °F 79% 29.94 in 10.0 mi Calm Calm - N/A   Overcast
3:53 AM 79.0 °F - 73.0 °F 82% 29.94 in 10.0 mi East 5.8 mph - N/A   Partly Cloudy
4:53 AM 78.1 °F - 66.0 °F 66% 29.93 in 10.0 mi Calm Calm - N/A   Clear
5:53 AM 75.9 °F - 62.1 °F 62% 29.94 in 10.0 mi NNE 6.9 mph - N/A   Clear
6:53 AM 80.1 °F 81.5 °F 63.0 °F 56% 29.95 in 10.0 mi NE 11.5 mph - N/A   Clear
7:53 AM 84.0 °F 83.8 °F 59.0 °F 43% 29.96 in 10.0 mi North 8.1 mph - N/A   Clear
8:53 AM 84.0 °F 85.8 °F 64.9 °F 53% 29.97 in 10.0 mi NW 9.2 mph - N/A   Clear
9:53 AM 82.9 °F 85.0 °F 66.0 °F 56% 29.97 in 10.0 mi West 5.8 mph - N/A   Clear
10:53 AM 84.9 °F 89.4 °F 70.0 °F 61% 29.97 in 10.0 mi WSW 9.2 mph - N/A   Clear
11:53 AM 86.0 °F 90.7 °F 70.0 °F 59% 29.96 in 10.0 mi SW 10.4 mph - N/A   Clear
12:53 PM 86.0 °F 90.7 °F 70.0 °F 59% 29.95 in 10.0 mi WSW 9.2 mph - N/A   Clear
1:53 PM 87.1 °F 92.0 °F 70.0 °F 57% 29.94 in 10.0 mi SW 11.5 mph - N/A   Partly Cloudy
2:53 PM 84.0 °F 88.4 °F 70.0 °F 63% 29.92 in 10.0 mi WSW 10.4 mph - N/A   Overcast
3:53 PM 84.0 °F 87.8 °F 69.1 °F 61% 29.91 in 10.0 mi SW 10.4 mph - N/A   Overcast
4:53 PM 84.0 °F 87.8 °F 69.1 °F 61% 29.91 in 10.0 mi SSW 8.1 mph - N/A   Overcast
6:53 PM 82.0 °F 85.9 °F 70.0 °F 67% 29.92 in 10.0 mi South 8.1 mph - N/A   Partly Cloudy
7:53 PM 82.0 °F 85.9 °F 70.0 °F 67% 29.95 in 10.0 mi SSE 9.2 mph - N/A   Mostly Cloudy
8:53 PM 81.0 °F 84.4 °F 70.0 °F 69% 29.96 in 10.0 mi SE 9.2 mph - N/A   Mostly Cloudy
9:53 PM 80.1 °F 83.2 °F 70.0 °F 71% 29.97 in 10.0 mi SE 9.2 mph - N/A   Clear
10:53 PM 80.1 °F 82.9 °F 69.1 °F 69% 29.97 in 10.0 mi SE 8.1 mph - N/A   Clear
11:53 PM 79.0 °F - 69.1 °F 72% 29.97 in 10.0 mi ESE 8.1 mph - N/A   Clear